Flag for Austria Weather past 2 weeks in Melk, Lower Austria, Austria

Now
49 °F

Cool.


Feels Like: 49 °F
Forecast: 31 / 54 °F
Wind: 2 mph from Southwest

Location: Amstetten

Current Time: Oct 24, 2014 at 5:48:35 PM

Latest Report: Oct 24, 2014 at 5:00 PM


Visibility: N/A

Pressure: 30.19 "Hg

Humidity: 93%

Dew point: 47 °F

Location of MelkLocation

Historic Weather in Melk — Graph

°F

Melk temperature yesterday

Maximum temperature yesterday: 51 °F (at 1:00 PM)
Minimum temperature yesterday: 40 °F (at 2:00 AM)
Average temperature yesterday: 47 °F

Past Weeks' High & Low Weather Summary

 TemperatureHumidityPressure
High72 °F (Oct 12, 3:00 PM)100% (Oct 10, 8:00 AM)30.32 "Hg (Oct 10, 8:00 AM)
Low40 °F (Oct 23, 2:00 AM)56% (Oct 14, 3:00 PM)29.63 "Hg (Oct 21, 11:00 PM)
Average55 °F91%29.97 "Hg
* Reported Oct 9 4:00 PM — Oct 24 4:00 PM, Melk, Weather by CustomWeather, © 2014

Note: Actual official high and low records may vary slightly from our data, if they occured in-between our weather recording intervals... More about our weather records

Advertising

Melk weather history for previous 24 hours

 ConditionsComfort  
Time TempWeatherWind HumidityBarometerVisibility
4:00 PM
Oct 24
48 °FCool.3 mph91%30.19 "HgN/A
3:00 PM49 °FCool.2 mph91%30.20 "HgN/A
2:00 PM49 °FCool.2 mph92%30.21 "HgN/A
1:00 PM49 °FCool.2 mph91%30.22 "HgN/A
12:00 PM48 °FCool.2 mph89%30.23 "HgN/A
11:00 AM47 °FCool.2 mph91%30.23 "HgN/A
10:00 AM47 °FCool.2 mph90%30.22 "HgN/A
9:00 AM48 °FCool.2 mph90%30.21 "HgN/A
8:00 AM48 °FOvercast.2 mph94%30.20 "HgN/A
7:00 AM48 °FCool.2 mph94%30.19 "HgN/A
6:00 AM47 °FCool.2 mph94%30.17 "HgN/A
5:00 AM48 °FCool.2 mph92%30.17 "HgN/A
4:00 AM49 °FCool.2 mph85%30.17 "HgN/A
3:00 AM49 °FCool.2 mph88%30.17 "HgN/A
2:00 AM49 °FCool.2 mph90%30.16 "HgN/A
1:00 AM49 °FCool.3 mph89%30.15 "HgN/A
12:00 AM48 °FCool.3 mph94%30.16 "HgN/A
11:00 PM
Oct 23
48 °FCool.2 mph94%30.15 "HgN/A
10:00 PM49 °FCool.2 mph95%30.15 "HgN/A
9:00 PM49 °FCool.1 mph94%30.13 "HgN/A
8:00 PM50 °FCool.2 mph94%30.11 "HgN/A
7:00 PM49 °FCool.2 mph95%30.09 "HgN/A
6:00 PM50 °FCool.2 mph92%30.07 "HgN/A
5:00 PM50 °FCool.3 mph95%30.05 "HgN/A
Weather by CustomWeather, © 2014

See weather overviewHow to use our weather pages